Location: Godiavel Galaoual
(15.2485°N, 12.6604°W)
Time: 02:07:55
(UTC+00:00)

N. Korean satellite - Pass Details

Date: 08 December 2021
Orbit: 447 x 491 km, 97.3° (Epoch: 22 January)

Event Time Altitude Azimuth Distance (km) Brightness Sun altitude
Rises 06:09:22 0° 359° (N) 2,439 9.9 -13.3°
Reaches altitude 10° 06:11:28 10° 351° (N) 1,571 8.9 -12.8°
Maximum altitude 06:14:35 36° 282° (WNW) 722 6.9 -12.1°
Drops below altitude 10° 06:17:44 10° 214° (SW) 1,584 9.0 -11.4°
Sets 06:19:53 0° 205° (SSW) 2,464 10.1 -10.9°
